THOR ABLESTAR DEB, 656

Orbit data source: Space-Track

THOR ABLESTAR DEB, 656 is space debris in LEO originally from a launch on Thu, 29 Jun 1961 UTC launched from the Air Force Eastern Test Range (AFETR). Debris objects in space refer to the collection of defunct objects orbiting the Earth. Examples of debris include non-operational satellites, rocket bodies, and fragments generated from explosions, collisions, or faulty payload assembly.

Loading next visibility...
Identifier
656, 1961-015HH
Orbit
LEO
Country
Flag of USUS
Related business
Manufacturer
Unknown
Mission
Spacecraft
Bus & Motor
Unknown
Mass
Unknown
Launch date (UTC)
1961-06-29 (65 years ago)
Launch vehicle
Unknown
Launch site
Air Force Eastern Test Range (AFETR)
Object type
Payload
Rocket body
Debris
Shape & HBR
Unknown shape, 0.2 m
Radar Cross Section
Medium (>0.1 m² and <1 m²)

Expand to show TLE details & history
Last TLE update: 2 days ago

TLE from 2 days ago
0 THOR ABLESTAR DEB
1 00656U 61015HH  26173.47910458  .00000288  00000-0  70916-3 0  9991
2 00656  66.2897 192.9210 0647769 120.0137 246.6770 12.72950010967678
Epoch: 2026-06-22T11:29Z
TLE epoch observation values (Epoch: 2026-06-22T11:29:54.635Z)
Latitude
-0.00004°
Longitude
109.7789°
Altitude
1,596.96 km
Speed
6.968 km/s
True Right ascension
12h 51m 41s
True Declination
0° 00' 00"
Sunlit
Object was in daylight at epoch
Visualization orbit readout
Latitude
Unknown
Longitude
Unknown
Altitude
Unknown
Speed
Unknown
Apparent Right ascension
Unknown
Apparent Declination
Unknown
Sunlit
N/A
Visualization observer readout
Local Sidereal Time
14:45:47
Azimuth
Unknown
Elevation
Unknown
Doppler factor
Unknown
Orbital elements
Apogee altitude
1,870.28 km
Perigee altitude
866.677 km
Semi-major axis
7,746.615 km
Eccentricity
0.06478
Inclination
66.2897°
RAAN
192.921°
Arg. of periapsis
120.0137°
True anomaly
240.08713°
Mean anomaly
246.677°
Eccentric anomaly
243.35957°
Mean motion
3.18328 °/min
Orbital period
113.09 mins
BSTAR
0.00070916
Loading maneuver chart data...
Computing Atmospheric mass density...

Documentation

Showing up to 5 results
|